Home   Weather   New Haven   Past weeks

Flag for USA Past Weather in New Haven, Connecticut, USA — Yesterday and Last 2 Weeks

Now
50 °F

Overcast.


Feels Like: 48 °F
Forecast: 49 / 53 °F
Wind: 5 mph from Northeast

Location: Tweed-New Haven Airport

Current Time: Apr 24, 2017 at 9:00:45 pm

Latest Report: Apr 24, 2017 at 7:53 pm


Visibility: 10 mi

Pressure: 30.17 "Hg

Humidity: 83%

Dew Point: 45 °F

Location of New HavenLocation

Past Weather in New Haven — Graph

°F

New Haven Temperature Yesterday

Maximum temperature yesterday: 58 °F (at 11:53 am)
Minimum temperature yesterday: 42 °F (at 6:53 am)
Average temperature yesterday: 50 °F

High & Low Weather Summary for the Past Weeks

 TemperatureHumidityPressure
High74 °F (Apr 16, 1:53 pm)100% (Apr 15, 6:53 am)30.56 "Hg (Apr 15, 6:53 am)
Low36 °F (Apr 15, 6:53 am)23% (Apr 17, 6:53 pm)29.74 "Hg (Apr 16, 6:53 pm)
Average52 °F73%30.14 "Hg
* Reported Apr 9 7:53 pm — Apr 24 7:53 pm, New Haven, Weather by CustomWeather, © 2017

Note: Actual official high and low records may vary slightly from our data, if they occured in-between our weather recording intervals... More about our weather records

Advertising

New Haven Weather History for the Previous 24 Hours

Scroll right to see more
 ConditionsComfort  
Time TempWeatherWind HumidityBarometerVisibility
7:53 pm
Mon, Apr 24
50 °FOvercast.5 mph83%30.17 "Hg10 mi
6:53 pm51 °FOvercast.6 mph77%30.16 "Hg10 mi
5:53 pm52 °FOvercast.7 mph69%30.16 "Hg10 mi
4:53 pm53 °FOvercast.7 mph64%30.15 "Hg10 mi
3:53 pm57 °FBroken clouds.6 mph53%30.16 "Hg10 mi
2:53 pm59 °FSunny.3 mph44%30.15 "Hg10 mi
1:53 pm58 °FSunny.3 mph50%30.17 "Hg10 mi
12:53 pm54 °FPartly sunny.7 mph62%30.18 "Hg10 mi
11:53 am55 °FPartly sunny.7 mph67%30.18 "Hg10 mi
10:53 am52 °FPartly sunny.7 mph77%30.19 "Hg10 mi
9:53 am50 °FPartly sunny.No wind89%30.19 "Hg10 mi
8:53 am49 °FPartly sunny.7 mph86%30.19 "Hg10 mi
7:53 am48 °FScattered clouds.5 mph93%30.18 "Hg10 mi
6:53 am40 °FScattered clouds.No wind100%30.16 "Hg10 mi
5:53 am38 °FPassing clouds.No wind93%30.14 "Hg10 mi
5:07 am38 °FClear.3 mph93%30.13 "Hg10 mi
3:53 am39 °FClear.No wind93%30.12 "Hg10 mi
2:53 am41 °FClear.No wind86%30.12 "Hg10 mi
1:53 am44 °FClear.No wind85%30.13 "Hg10 mi
12:53 am47 °FClear.3 mph83%30.15 "Hg10 mi
11:53 pm
Sun, Apr 23
48 °FClear.3 mph80%30.14 "Hg10 mi
10:53 pm46 °FClear.3 mph83%30.13 "Hg10 mi
9:53 pm46 °FClear.6 mph83%30.13 "Hg10 mi
Weather by CustomWeather, © 2017

See weather overviewHow to use our weather pages